YUBILEINY (RS-30)

Last updated on Thu Oct 30 2025 00:03:10 GMT+0000 (Coordinated Universal Time)

1 32953U 08025A 25302.52782826 .00000019 00000+0 63191-4 0 9992 2 32953 82.5001 138.9243 0019950 94.7863 265.5496 12.43169804791036
UTC large
Height (km)
Speed (km/s)
/
Latitude / Longitude
Inclination (degrees)
Orbital Period (minutes)
Azimuth
Elevation
Range (km)
Doppler Factor

Next 0 passes for location: London (51.5072 / 0.1276)

Sorry there are no passes over London.